Location: Churchill Northern Studies Centre
(58.7378°N, 93.8201°W)
Time: 03:33:12
(UTC-05:00)

N. Korean satellite - Pass Details

Date: 07 October 2017
Orbit: 459 x 517 km, 97.2° (Epoch: 20 October)

Event Time Altitude Azimuth Distance (km) Brightness Sun altitude
Rises 19:37:30 0° 186° (S) 2,569 10.3 -9.5°
Reaches altitude 10° 19:39:42 10° 195° (SSW) 1,681 9.4 -9.8°
Maximum altitude 19:43:03 35° 263° (W) 805 8.4 -10.2°
Drops below altitude 10° 19:46:22 10° 331° (NNW) 1,664 9.8 -10.7°
Sets 19:48:32 0° 340° (NNW) 2,538 10.6 -10.9°
